QZS-4 (MICHIBIKI-4)

Last updated on Wed Apr 23 2025 00:02:43 GMT+0000 (Coordinated Universal Time)

1 42965U 17062A 25112.41592708 -.00000295 00000+0 00000+0 0 9994 2 42965 40.3570 348.8548 0746690 270.5807 240.7151 1.00267583 27593
UTC large
Height (km)
Speed (km/s)
/
Latitude / Longitude
Inclination (degrees)
Orbital Period (minutes)
Azimuth
Elevation
Range (km)
Doppler Factor

Next 0 passes for location: London (51.5072 / 0.1276)

Sorry there are no passes over London.